SWA678 KTPA-KDEN

Flight info

Callsign SWA678
Flight time N/A
Altitude 38000
Route DORMR3 FROOT ROZZI Y280 REDFN HRV EAKER IRW TUZXY GCK KIISS CLASH5
Aircraft B38M/M-SADE2E3GHIJ4J7P2RWZ/LB1D1

Departure

Time 2026-05-06 21:41
Airport Tampa International Airport (KTPA)

Arrival

Time N/A
Airport Denver International Airport (KDEN)
Time Latitude Longitude Altitude Speed Heading
2026-05-06 21:26 27.98260 -82.53119 45 ft 0 kts 272°
2026-05-06 21:31 27.98260 -82.53096 45 ft 4 kts 271°
2026-05-06 21:31 27.98259 -82.53069 45 ft 4 kts 281°
2026-05-06 21:32 27.98248 -82.53049 45 ft 4 kts 341°
2026-05-06 21:32 27.98221 -82.53046 45 ft 0 kts
2026-05-06 21:35 27.98225 -82.53046 43 ft 3 kts
2026-05-06 21:36 27.98282 -82.53046 45 ft 12 kts 359°
2026-05-06 21:36 27.98368 -82.53065 43 ft 14 kts 329°
2026-05-06 21:36 27.98453 -82.53132 45 ft 16 kts 337°
2026-05-06 21:36 27.98551 -82.53183 46 ft 16 kts 299°
2026-05-06 21:37 27.98568 -82.53287 53 ft 12 kts 273°
2026-05-06 21:37 27.98571 -82.53376 57 ft 11 kts 271°
2026-05-06 21:37 27.98572 -82.53457 69 ft 10 kts 271°
2026-05-06 21:37 27.98575 -82.53565 64 ft 19 kts 272°
2026-05-06 21:38 27.98580 -82.53755 50 ft 28 kts 272°
2026-05-06 21:38 27.98600 -82.53921 49 ft 18 kts 315°
2026-05-06 21:38 27.98728 -82.53949 49 ft 21 kts
2026-05-06 21:38 27.98879 -82.53944 49 ft 23 kts
2026-05-06 21:39 27.99045 -82.53938 49 ft 25 kts
2026-05-06 21:39 27.99203 -82.53933 48 ft 21 kts
2026-05-06 21:39 27.99330 -82.53952 48 ft 17 kts 313°
2026-05-06 21:39 27.99348 -82.54078 46 ft 15 kts 268°
2026-05-06 21:40 27.99319 -82.54130 48 ft 6 kts 182°
2026-05-06 21:40 27.99258 -82.54132 49 ft 18 kts 183°
2026-05-06 21:40 27.98874 -82.54151 52 ft 91 kts 182°
2026-05-06 21:40 27.98024 -82.54178 44 ft 151 kts 182°
2026-05-06 21:41 27.96939 -82.54170 374 ft 155 kts 173°
2026-05-06 21:41 27.95867 -82.53966 829 ft 156 kts 178°
2026-05-06 21:41 27.94830 -82.54189 1523 ft 157 kts 203°
2026-05-06 21:41 27.93842 -82.54866 1968 ft 177 kts 223°
2026-05-06 21:42 27.93077 -82.56046 2369 ft 197 kts 239°
2026-05-06 21:42 27.92345 -82.57479 2744 ft 223 kts 238°
2026-05-06 21:42 27.91507 -82.59063 3205 ft 245 kts 237°
2026-05-06 21:42 27.90583 -82.60789 3784 ft 262 kts 237°
2026-05-06 21:43 27.89624 -82.62568 4421 ft 273 kts 237°
2026-05-06 21:43 27.88628 -82.64408 5321 ft 276 kts 237°
2026-05-06 21:43 27.87608 -82.66282 6246 ft 277 kts 238°
2026-05-06 21:43 27.86598 -82.68141 7106 ft 281 kts 238°
2026-05-06 21:44 27.85562 -82.70045 7929 ft 285 kts 238°
2026-05-06 21:44 27.84516 -82.71967 8715 ft 289 kts 238°
2026-05-06 21:44 27.83457 -82.73912 9478 ft 293 kts 238°
2026-05-06 21:44 27.82378 -82.75891 10198 ft 298 kts 238°
2026-05-06 21:45 27.81258 -82.77942 10606 ft 316 kts 238°
2026-05-06 21:45 27.80076 -82.80105 11068 ft 328 kts 238°
2026-05-06 21:45 27.78871 -82.82313 11876 ft 327 kts 238°
2026-05-06 21:45 27.77685 -82.84490 12685 ft 332 kts 238°
2026-05-06 21:46 27.76436 -82.86776 12688 ft 350 kts 239°
2026-05-06 21:46 27.75139 -82.89146 13237 ft 360 kts 239°
2026-05-06 21:46 27.73804 -82.91586 13751 ft 370 kts 239°
2026-05-06 21:46 27.72445 -82.94069 14479 ft 372 kts 240°
2026-05-06 21:47 27.71080 -82.96567 15214 ft 375 kts 240°
2026-05-06 21:47 27.69704 -82.99079 15857 ft 380 kts 240°
2026-05-06 21:47 27.68312 -83.01621 16485 ft 382 kts 240°
2026-05-06 21:47 27.67024 -83.04238 17092 ft 381 kts 251°
2026-05-06 21:48 27.66421 -83.07131 17720 ft 379 kts 264°
2026-05-06 21:48 27.66081 -83.10098 18324 ft 382 kts 265°
2026-05-06 21:48 27.65766 -83.13083 18921 ft 385 kts 265°
2026-05-06 21:48 27.65466 -83.16095 19477 ft 387 kts 266°
2026-05-06 21:49 27.65177 -83.19118 20073 ft 389 kts 266°
2026-05-06 21:49 27.64890 -83.22156 20640 ft 390 kts 266°
2026-05-06 21:49 27.64607 -83.25199 21185 ft 392 kts 266°
2026-05-06 21:49 27.64321 -83.28261 21721 ft 393 kts 266°
2026-05-06 21:50 27.64034 -83.31339 22242 ft 395 kts 266°
2026-05-06 21:50 27.63745 -83.34419 22721 ft 397 kts 266°
2026-05-06 21:50 27.63451 -83.37561 23220 ft 398 kts 266°
2026-05-06 21:50 27.63159 -83.40664 23689 ft 399 kts 266°
2026-05-06 21:51 27.62865 -83.43785 24157 ft 400 kts 266°
2026-05-06 21:51 27.62570 -83.46904 24610 ft 401 kts 266°
2026-05-06 21:51 27.62273 -83.50042 24993 ft 404 kts 266°
2026-05-06 21:51 27.61973 -83.53197 25391 ft 406 kts 266°
2026-05-06 21:52 27.61672 -83.56367 25779 ft 408 kts 266°
2026-05-06 21:52 27.61367 -83.59561 26165 ft 410 kts 266°
2026-05-06 21:52 27.61060 -83.62765 26529 ft 413 kts 266°
2026-05-06 21:52 27.60751 -83.65991 26937 ft 414 kts 266°
2026-05-06 21:53 27.60440 -83.69227 27294 ft 417 kts 266°
2026-05-06 21:53 27.60126 -83.72488 27646 ft 419 kts 266°
2026-05-06 21:53 27.59810 -83.75755 28011 ft 421 kts 266°
2026-05-06 21:53 27.59491 -83.79048 28353 ft 423 kts 266°
2026-05-06 21:54 27.59171 -83.82355 28708 ft 425 kts 266°
2026-05-06 21:54 27.58847 -83.85677 29017 ft 428 kts 266°
2026-05-06 21:54 27.58522 -83.89014 29350 ft 429 kts 266°
2026-05-06 21:54 27.58194 -83.92365 29653 ft 432 kts 266°
2026-05-06 21:55 27.57970 -83.94646 29858 ft 433 kts 266°
2026-05-06 21:55 27.57638 -83.98018 30180 ft 434 kts 266°
2026-05-06 21:55 27.57306 -84.01400 30557 ft 434 kts 266°
2026-05-06 21:55 27.56972 -84.04781 30987 ft 433 kts 266°
2026-05-06 21:56 27.56639 -84.08148 31441 ft 432 kts 266°
2026-05-06 21:56 27.56306 -84.11505 31864 ft 430 kts 266°
2026-05-06 21:56 27.55983 -84.14856 32300 ft 429 kts 268°
2026-05-06 21:56 27.56148 -84.18173 32707 ft 424 kts 281°
2026-05-06 21:57 27.56665 -84.21438 33109 ft 423 kts 280°
2026-05-06 21:57 27.57164 -84.24694 33507 ft 422 kts 281°
2026-05-06 21:57 27.57677 -84.27950 33903 ft 421 kts 281°
2026-05-06 21:57 27.58197 -84.31187 34311 ft 419 kts 281°
2026-05-06 21:58 27.58720 -84.34418 34696 ft 418 kts 281°
2026-05-06 21:58 27.59241 -84.37636 35066 ft 417 kts 281°
2026-05-06 21:58 27.59759 -84.40841 35460 ft 415 kts 281°
2026-05-06 21:58 27.60276 -84.44040 35812 ft 415 kts 281°
2026-05-06 21:59 27.60792 -84.47236 36150 ft 414 kts 281°
2026-05-06 21:59 27.61306 -84.50426 36466 ft 413 kts 281°
2026-05-06 21:59 27.61824 -84.53647 36770 ft 413 kts 281°
2026-05-06 21:59 27.62334 -84.56828 37139 ft 410 kts 281°
2026-05-06 22:00 27.62840 -84.59976 37463 ft 408 kts 281°
2026-05-06 22:00 27.63343 -84.63121 37787 ft 406 kts 281°
2026-05-06 22:00 27.63843 -84.66245 38049 ft 405 kts 281°
2026-05-06 22:00 27.64340 -84.69361 38074 ft 403 kts 281°
2026-05-06 22:01 27.65325 -84.75547 38056 ft 400 kts 280°
2026-05-06 22:01 27.66309 -84.81741 38053 ft 401 kts 280°
2026-05-06 22:02 27.67289 -84.87933 38054 ft 401 kts 280°
2026-05-06 22:02 27.68270 -84.94145 38055 ft 402 kts 280°
2026-05-06 22:03 27.69247 -85.00358 38054 ft 402 kts 280°
2026-05-06 22:03 27.70223 -85.06570 38055 ft 402 kts 280°
2026-05-06 22:04 27.71201 -85.12822 38055 ft 402 kts 280°
2026-05-06 22:04 27.72170 -85.19039 38056 ft 402 kts 280°
2026-05-06 22:05 27.73140 -85.25269 38054 ft 403 kts 280°
2026-05-06 22:05 27.74470 -85.31387 38054 ft 402 kts 294°
2026-05-06 22:06 27.76809 -85.37143 38054 ft 404 kts 293°
2026-05-06 22:06 27.79175 -85.42893 38054 ft 404 kts 293°
2026-05-06 22:07 27.81561 -85.48637 38048 ft 404 kts 293°
2026-05-06 22:07 27.83949 -85.54386 38044 ft 404 kts 293°
2026-05-06 22:08 27.86333 -85.60135 38046 ft 404 kts 293°
2026-05-06 22:08 27.88713 -85.65881 38045 ft 404 kts 293°
2026-05-06 22:09 27.91109 -85.71676 38046 ft 404 kts 293°
2026-05-06 22:09 27.93484 -85.77426 38038 ft 403 kts 293°
2026-05-06 22:10 27.95852 -85.83168 38037 ft 403 kts 293°
2026-05-06 22:10 27.98220 -85.88919 38044 ft 403 kts 293°
2026-05-06 22:11 28.00586 -85.94673 38045 ft 403 kts 293°
2026-05-06 22:11 28.02947 -86.00424 38044 ft 403 kts 293°
2026-05-06 22:12 28.05307 -86.06179 38045 ft 403 kts 293°
2026-05-06 22:12 28.07667 -86.11943 38040 ft 403 kts 293°
2026-05-06 22:13 28.10022 -86.17705 38036 ft 403 kts 293°
2026-05-06 22:13 28.12376 -86.23472 38037 ft 403 kts 292°
2026-05-06 22:14 28.14727 -86.29239 38035 ft 403 kts 292°
2026-05-06 22:14 28.17070 -86.34995 38037 ft 403 kts 292°
2026-05-06 22:15 28.19413 -86.40762 38035 ft 403 kts 292°
2026-05-06 22:15 28.21752 -86.46526 38027 ft 402 kts 292°
2026-05-06 22:16 28.24086 -86.52285 38027 ft 402 kts 292°
2026-05-06 22:16 28.26420 -86.58054 38027 ft 402 kts 292°
2026-05-06 22:17 28.28763 -86.63849 38027 ft 401 kts 292°
2026-05-06 22:17 28.31085 -86.69610 38026 ft 401 kts 291°
2026-05-06 22:18 28.32810 -86.75599 38023 ft 399 kts 286°
2026-05-06 22:18 28.34547 -86.81595 38018 ft 400 kts 287°
2026-05-06 22:19 28.36299 -86.87572 38017 ft 399 kts 287°
2026-05-06 22:19 28.38054 -86.93559 38018 ft 399 kts 287°
2026-05-06 22:20 28.39805 -86.99547 38018 ft 399 kts 286°
2026-05-06 22:20 28.41550 -87.05524 38017 ft 399 kts 286°
2026-05-06 22:21 28.43293 -87.11506 38017 ft 399 kts 286°
2026-05-06 22:21 28.45034 -87.17487 38018 ft 399 kts 286°
2026-05-06 22:22 28.46772 -87.23474 38017 ft 399 kts 286°
2026-05-06 22:22 28.48521 -87.29510 38018 ft 399 kts 286°
2026-05-06 22:23 28.50255 -87.35503 38018 ft 399 kts 286°
2026-05-06 22:23 28.51988 -87.41504 38019 ft 399 kts 286°
2026-05-06 22:24 28.53716 -87.47500 38019 ft 399 kts 286°
2026-05-06 22:24 28.55442 -87.53496 38017 ft 399 kts 286°
2026-05-06 22:25 28.57167 -87.59503 38018 ft 399 kts 286°
2026-05-06 22:25 28.58598 -87.64495 38017 ft 399 kts 286°
2026-05-06 22:26 28.60318 -87.70504 38017 ft 399 kts 286°
2026-05-06 22:26 28.62036 -87.76519 38018 ft 400 kts 285°
2026-05-06 22:27 28.63752 -87.82535 38017 ft 400 kts 285°
2026-05-06 22:27 28.65464 -87.88553 38018 ft 400 kts 285°
2026-05-06 22:28 28.67185 -87.94607 38017 ft 399 kts 285°
2026-05-06 22:28 28.68892 -88.00627 38018 ft 400 kts 285°
2026-05-06 22:29 28.70597 -88.06648 38021 ft 399 kts 285°
2026-05-06 22:29 28.72291 -88.12679 38017 ft 399 kts 285°
2026-05-06 22:30 28.73980 -88.18698 38018 ft 399 kts 285°
2026-05-06 22:30 28.75667 -88.24720 38017 ft 398 kts 285°
2026-05-06 22:31 28.77346 -88.30724 38017 ft 398 kts 285°
2026-05-06 22:31 28.79025 -88.36742 38017 ft 398 kts 285°
2026-05-06 22:32 28.80701 -88.42758 38015 ft 397 kts 285°
2026-05-06 22:32 28.82369 -88.48759 38015 ft 397 kts 285°
2026-05-06 22:33 28.84034 -88.54763 38017 ft 397 kts 285°
2026-05-06 22:33 28.85698 -88.60772 38009 ft 397 kts 285°
2026-05-06 22:34 28.87357 -88.66772 38008 ft 397 kts 285°
2026-05-06 22:34 28.88432 -88.69733 37993 ft 401 kts 297°
2026-05-06 22:34 28.90097 -88.72261 38018 ft 407 kts 305°
2026-05-06 22:35 28.92891 -88.77759 38006 ft 394 kts 282°
2026-05-06 22:35 28.94094 -88.83855 38016 ft 395 kts 282°
2026-05-06 22:36 28.95499 -88.89938 38006 ft 396 kts 282°
2026-05-06 22:36 28.96935 -88.95991 37999 ft 396 kts 283°
2026-05-06 22:37 28.98381 -89.02062 37999 ft 395 kts 283°
2026-05-06 22:37 28.99820 -89.08111 37998 ft 395 kts 282°
2026-05-06 22:38 29.01258 -89.14168 37999 ft 395 kts 282°
2026-05-06 22:38 29.02694 -89.20234 37995 ft 395 kts 282°
2026-05-06 22:39 29.04128 -89.26297 37979 ft 395 kts 282°
2026-05-06 22:39 29.05554 -89.32349 37971 ft 394 kts 282°
2026-05-06 22:40 29.06978 -89.38397 37967 ft 394 kts 282°
2026-05-06 22:40 29.08410 -89.44496 37960 ft 395 kts 282°
2026-05-06 22:41 29.10538 -89.53584 37978 ft 394 kts 282°
2026-05-06 22:42 29.11951 -89.59634 37972 ft 393 kts 282°
2026-05-06 22:42 29.13360 -89.65684 37965 ft 393 kts 282°
2026-05-06 22:43 29.14766 -89.71728 37961 ft 393 kts 282°
2026-05-06 22:43 29.16165 -89.77762 37955 ft 393 kts 282°
2026-05-06 22:44 29.17562 -89.83799 37958 ft 392 kts 282°
2026-05-06 22:44 29.18956 -89.89834 37958 ft 392 kts 282°
2026-05-06 22:45 29.20338 -89.95883 37954 ft 397 kts 284°
2026-05-06 22:45 29.21755 -90.02043 38011 ft 405 kts 284°
2026-05-06 22:46 29.23205 -90.08354 38002 ft 415 kts 284°
2026-05-06 22:46 29.24691 -90.14840 37999 ft 426 kts 284°
2026-05-06 22:47 29.26220 -90.21527 37998 ft 437 kts 284°
2026-05-06 22:47 29.27775 -90.28342 37998 ft 448 kts 284°
2026-05-06 22:48 29.29364 -90.35330 37998 ft 456 kts 284°
2026-05-06 22:48 29.30955 -90.42351 38000 ft 455 kts 284°
2026-05-06 22:49 29.32543 -90.49381 38001 ft 455 kts 284°
2026-05-06 22:49 29.34126 -90.56404 38001 ft 455 kts 284°
2026-05-06 22:50 29.35707 -90.63437 38000 ft 455 kts 284°
2026-05-06 22:50 29.37282 -90.70467 38000 ft 455 kts 284°
2026-05-06 22:51 29.38855 -90.77501 38000 ft 455 kts 284°
2026-05-06 22:51 29.40423 -90.84533 38000 ft 455 kts 284°
2026-05-06 22:52 29.41988 -90.91571 38001 ft 455 kts 284°
2026-05-06 22:52 29.43560 -90.98655 38000 ft 455 kts 284°
2026-05-06 22:53 29.45119 -91.05703 37996 ft 455 kts 284°
2026-05-06 22:53 29.46673 -91.12748 38001 ft 455 kts 284°
2026-05-06 22:54 29.48223 -91.19795 38000 ft 455 kts 284°
2026-05-06 22:54 29.49770 -91.26844 38000 ft 455 kts 284°
2026-05-06 22:55 29.51313 -91.33897 38000 ft 455 kts 284°
2026-05-06 22:55 29.52853 -91.40951 38001 ft 455 kts 284°
2026-05-06 22:56 29.54388 -91.48003 38000 ft 455 kts 284°
2026-05-06 22:56 29.55920 -91.55065 38000 ft 455 kts 284°
2026-05-06 22:57 29.57448 -91.62124 38000 ft 456 kts 284°
2026-05-06 22:57 29.58972 -91.69184 38000 ft 455 kts 284°
2026-05-06 22:58 29.60238 -91.75062 38000 ft 456 kts 284°
2026-05-06 22:58 29.61755 -91.82130 38000 ft 455 kts 284°
2026-05-06 22:59 29.63279 -91.89245 38000 ft 455 kts 284°
2026-05-06 22:59 29.64788 -91.96311 38000 ft 456 kts 284°
2026-05-06 23:00 29.66295 -92.03388 38000 ft 455 kts 283°
2026-05-06 23:00 29.67798 -92.10461 38000 ft 455 kts 283°
2026-05-06 23:01 29.69298 -92.17543 38000 ft 456 kts 283°
2026-05-06 23:01 29.70792 -92.24620 38000 ft 456 kts 283°
2026-05-06 23:02 29.72283 -92.31702 38000 ft 456 kts 283°
2026-05-06 23:02 29.73771 -92.38787 38001 ft 456 kts 283°
2026-05-06 23:03 29.75256 -92.45877 38000 ft 456 kts 283°
2026-05-06 23:03 29.76736 -92.52965 38000 ft 456 kts 283°
2026-05-06 23:04 29.78212 -92.60053 38000 ft 456 kts 283°
2026-05-06 23:04 29.79685 -92.67146 38000 ft 456 kts 283°
2026-05-06 23:05 29.81154 -92.74243 38001 ft 456 kts 283°
2026-05-06 23:05 29.82620 -92.81344 38000 ft 456 kts 283°
2026-05-06 23:06 29.84089 -92.88485 38000 ft 456 kts 283°
2026-05-06 23:06 29.85547 -92.95588 38000 ft 456 kts 283°
2026-05-06 23:07 29.87000 -93.02689 38000 ft 456 kts 283°
2026-05-06 23:07 29.88450 -93.09794 38000 ft 456 kts 283°
2026-05-06 23:08 29.89898 -93.16909 38001 ft 456 kts 283°
2026-05-06 23:08 29.91340 -93.24017 38001 ft 456 kts 283°
2026-05-06 23:09 29.92779 -93.31131 38000 ft 456 kts 283°
2026-05-06 23:09 29.94212 -93.38241 38001 ft 456 kts 283°
2026-05-06 23:10 29.95644 -93.45361 38000 ft 456 kts 283°
2026-05-06 23:10 29.97072 -93.52482 38000 ft 456 kts 283°
2026-05-06 23:11 29.98495 -93.59604 38001 ft 456 kts 283°
2026-05-06 23:11 29.99914 -93.66722 38000 ft 456 kts 283°
2026-05-06 23:12 30.01328 -93.73841 38001 ft 456 kts 283°
2026-05-06 23:12 30.02742 -93.80975 38000 ft 456 kts 283°
2026-05-06 23:13 30.04150 -93.88105 38000 ft 456 kts 283°
2026-05-06 23:13 30.05562 -93.95279 37999 ft 456 kts 283°
2026-05-06 23:14 30.06964 -94.02419 38000 ft 456 kts 283°
2026-05-06 23:14 30.08360 -94.09551 38001 ft 456 kts 282°
2026-05-06 23:15 30.09752 -94.16686 38000 ft 456 kts 283°
2026-05-06 23:15 30.11142 -94.23833 38001 ft 456 kts 282°
2026-05-06 23:16 30.12526 -94.30969 38000 ft 456 kts 282°
2026-05-06 23:16 30.13907 -94.38114 38000 ft 456 kts 282°
2026-05-06 23:17 30.15286 -94.45265 38000 ft 456 kts 282°
2026-05-06 23:17 30.16659 -94.52412 38000 ft 456 kts 282°
2026-05-06 23:18 30.18202 -94.59509 37988 ft 455 kts 293°
2026-05-06 23:18 30.19756 -94.62659 37997 ft 454 kts 308°
2026-05-06 23:18 30.21944 -94.65297 37990 ft 454 kts 322°
2026-05-06 23:19 30.27436 -94.68914 37994 ft 457 kts 333°
2026-05-06 23:19 30.33157 -94.72121 38000 ft 457 kts 334°
2026-05-06 23:20 30.38909 -94.75253 38000 ft 457 kts 335°
2026-05-06 23:20 30.44668 -94.78371 38000 ft 457 kts 335°
2026-05-06 23:21 30.50435 -94.81496 38000 ft 457 kts 335°
2026-05-06 23:21 30.56227 -94.84638 38000 ft 457 kts 334°
2026-05-06 23:22 30.61987 -94.87767 38000 ft 457 kts 334°
2026-05-06 23:22 30.67756 -94.90905 38001 ft 457 kts 335°
2026-05-06 23:23 30.73512 -94.94039 38001 ft 457 kts 334°
2026-05-06 23:23 30.79276 -94.97184 38001 ft 457 kts 334°
2026-05-06 23:24 30.85035 -95.00329 38000 ft 457 kts 334°
2026-05-06 23:24 30.90795 -95.03479 38001 ft 457 kts 334°
2026-05-06 23:25 30.96549 -95.06629 38001 ft 457 kts 334°
2026-05-06 23:25 31.02309 -95.09787 38000 ft 457 kts 334°
2026-05-06 23:26 31.08070 -95.12951 38000 ft 457 kts 334°
2026-05-06 23:26 31.13824 -95.16114 38000 ft 457 kts 334°
2026-05-06 23:27 31.19579 -95.19282 38000 ft 457 kts 334°
2026-05-06 23:27 31.25343 -95.22460 38000 ft 458 kts 334°
2026-05-06 23:28 31.31097 -95.25637 38000 ft 458 kts 334°
2026-05-06 23:28 31.36858 -95.28821 38002 ft 458 kts 334°
2026-05-06 23:29 31.42651 -95.32027 38000 ft 458 kts 334°
2026-05-06 23:29 31.47437 -95.34680 38000 ft 458 kts 334°
2026-05-06 23:30 31.53189 -95.37872 38000 ft 458 kts 334°
2026-05-06 23:30 31.58942 -95.41068 38000 ft 458 kts 334°
2026-05-06 23:31 31.64700 -95.44273 38000 ft 458 kts 334°
2026-05-06 23:31 31.70450 -95.47477 38000 ft 458 kts 334°
2026-05-06 23:32 31.76202 -95.50686 38000 ft 458 kts 334°
2026-05-06 23:32 31.81956 -95.53902 38000 ft 458 kts 334°
2026-05-06 23:33 31.87703 -95.57117 38000 ft 458 kts 334°
2026-05-06 23:33 31.93461 -95.60343 38000 ft 458 kts 334°
2026-05-06 23:34 31.99249 -95.63590 38000 ft 458 kts 334°
2026-05-06 23:34 32.04992 -95.66818 38000 ft 458 kts 334°
2026-05-06 23:35 32.10748 -95.70056 38001 ft 458 kts 334°
2026-05-06 23:35 32.16495 -95.73294 38000 ft 458 kts 334°
2026-05-06 23:36 32.22245 -95.76538 38000 ft 458 kts 334°
2026-05-06 23:36 32.27986 -95.79783 38000 ft 458 kts 334°
2026-05-06 23:37 32.33735 -95.83035 38000 ft 458 kts 334°
2026-05-06 23:37 32.39485 -95.86293 38001 ft 458 kts 334°
2026-05-06 23:38 32.45231 -95.89554 38000 ft 458 kts 334°
2026-05-06 23:38 32.50971 -95.92816 38000 ft 458 kts 334°
2026-05-06 23:39 32.56720 -95.96088 38000 ft 458 kts 334°
2026-05-06 23:39 32.62457 -95.99357 38000 ft 458 kts 334°
2026-05-06 23:40 32.68198 -96.02633 38000 ft 458 kts 334°
2026-05-06 23:40 32.73938 -96.05914 38000 ft 458 kts 334°
2026-05-06 23:41 32.79682 -96.09201 38000 ft 458 kts 334°
2026-05-06 23:41 32.85423 -96.12491 38000 ft 458 kts 334°
2026-05-06 23:42 32.91193 -96.15804 38000 ft 458 kts 334°
2026-05-06 23:42 32.96940 -96.19107 38000 ft 458 kts 334°
2026-05-06 23:43 33.02676 -96.22409 38000 ft 458 kts 334°
2026-05-06 23:43 33.08409 -96.25714 38000 ft 458 kts 334°
2026-05-06 23:44 33.14146 -96.29026 38000 ft 458 kts 334°
2026-05-06 23:44 33.19883 -96.32343 38000 ft 458 kts 334°
2026-05-06 23:45 33.25620 -96.35665 38000 ft 458 kts 334°
2026-05-06 23:45 33.31360 -96.38994 38000 ft 458 kts 334°
2026-05-06 23:46 33.37094 -96.42324 38001 ft 458 kts 334°
2026-05-06 23:46 33.42825 -96.45656 38000 ft 458 kts 334°
2026-05-06 23:47 33.48558 -96.48996 38000 ft 458 kts 334°
2026-05-06 23:47 33.54304 -96.52347 38001 ft 459 kts 334°
2026-05-06 23:48 33.60036 -96.55696 38001 ft 458 kts 334°
2026-05-06 23:48 33.65767 -96.59048 38000 ft 458 kts 334°
2026-05-06 23:49 33.71502 -96.62409 38001 ft 459 kts 334°
2026-05-06 23:49 33.77275 -96.65797 38000 ft 458 kts 334°
2026-05-06 23:50 33.83006 -96.69164 38000 ft 458 kts 334°
2026-05-06 23:50 33.91600 -96.74225 38000 ft 458 kts 334°
2026-05-06 23:51 33.97323 -96.77600 38001 ft 459 kts 334°
2026-05-06 23:51 34.03054 -96.80987 38000 ft 459 kts 334°
2026-05-06 23:52 34.08784 -96.84376 38000 ft 459 kts 333°
2026-05-06 23:52 34.14512 -96.87771 38000 ft 459 kts 333°
2026-05-06 23:53 34.20244 -96.91173 38000 ft 459 kts 333°
2026-05-06 23:53 34.25967 -96.94574 38001 ft 458 kts 333°
2026-05-06 23:54 34.31690 -96.97981 38001 ft 459 kts 333°
2026-05-06 23:54 34.37415 -97.01394 38001 ft 459 kts 333°
2026-05-06 23:55 34.43147 -97.04817 38001 ft 459 kts 333°
2026-05-06 23:55 34.48865 -97.08237 38001 ft 459 kts 333°
2026-05-06 23:56 34.54591 -97.11665 38000 ft 459 kts 333°
2026-05-06 23:56 34.60315 -97.15099 38001 ft 459 kts 333°
2026-05-06 23:57 34.66079 -97.18563 38000 ft 459 kts 333°
2026-05-06 23:57 34.71793 -97.22001 38000 ft 459 kts 333°
2026-05-06 23:58 34.77517 -97.25450 38001 ft 459 kts 333°
2026-05-06 23:58 34.83237 -97.28903 38000 ft 459 kts 333°
2026-05-06 23:59 34.88958 -97.32362 38000 ft 459 kts 333°
2026-05-06 23:59 34.94679 -97.35824 38000 ft 459 kts 333°
2026-05-07 00:00 35.00388 -97.39285 38000 ft 459 kts 333°
2026-05-07 00:00 35.05155 -97.42179 38000 ft 459 kts 333°
2026-05-07 00:01 35.10920 -97.45684 38003 ft 459 kts 333°
2026-05-07 00:01 35.16641 -97.49167 37999 ft 459 kts 333°
2026-05-07 00:02 35.22363 -97.52657 37999 ft 459 kts 333°
2026-05-07 00:02 35.28075 -97.56147 38001 ft 459 kts 333°
2026-05-07 00:03 35.33780 -97.59642 38000 ft 459 kts 332°
2026-05-07 00:03 35.35628 -97.61034 37968 ft 458 kts 320°
2026-05-07 00:03 35.37927 -97.63721 38019 ft 457 kts 315°
2026-05-07 00:04 35.42453 -97.69229 37997 ft 459 kts 314°
2026-05-07 00:04 35.46933 -97.74820 38001 ft 459 kts 314°
2026-05-07 00:05 35.51394 -97.80431 37995 ft 459 kts 314°
2026-05-07 00:05 35.55852 -97.86050 38000 ft 459 kts 314°
2026-05-07 00:06 35.60302 -97.91670 37999 ft 459 kts 314°
2026-05-07 00:06 35.64758 -97.97306 37995 ft 459 kts 314°
2026-05-07 00:07 35.69205 -98.02941 37980 ft 459 kts 314°
2026-05-07 00:07 35.73643 -98.08574 38003 ft 459 kts 314°
2026-05-07 00:08 35.78092 -98.14230 38000 ft 459 kts 314°
2026-05-07 00:08 35.82530 -98.19883 38002 ft 459 kts 314°
2026-05-07 00:09 35.86969 -98.25546 37997 ft 459 kts 314°
2026-05-07 00:09 35.91403 -98.31212 38004 ft 459 kts 314°
2026-05-07 00:10 35.95837 -98.36888 38001 ft 459 kts 314°
2026-05-07 00:10 36.00299 -98.42610 37995 ft 459 kts 314°
2026-05-07 00:11 36.04722 -98.48293 37992 ft 459 kts 314°
2026-05-07 00:11 36.09152 -98.53993 37998 ft 460 kts 314°
2026-05-07 00:12 36.13588 -98.59711 38004 ft 460 kts 313°
2026-05-07 00:12 36.18012 -98.65424 37996 ft 460 kts 314°
2026-05-07 00:13 36.22436 -98.71147 37999 ft 460 kts 313°
2026-05-07 00:13 36.26862 -98.76881 38000 ft 460 kts 313°
2026-05-07 00:14 36.31283 -98.82621 38000 ft 460 kts 313°
2026-05-07 00:14 36.35687 -98.88348 38001 ft 460 kts 313°
2026-05-07 00:15 36.40110 -98.94110 38001 ft 460 kts 313°
2026-05-07 00:15 36.44521 -98.99865 38002 ft 460 kts 313°
2026-05-07 00:16 36.48929 -99.05628 38000 ft 460 kts 313°
2026-05-07 00:16 36.53337 -99.11400 38002 ft 460 kts 313°
2026-05-07 00:17 36.57769 -99.17212 37989 ft 460 kts 313°
2026-05-07 00:17 36.62175 -99.23000 38000 ft 461 kts 313°
2026-05-07 00:18 36.66802 -99.28300 38035 ft 426 kts 303°
2026-05-07 00:18 36.68902 -99.30718 38040 ft 405 kts 302°
2026-05-07 00:18 36.70962 -99.33073 38129 ft 399 kts 302°
2026-05-07 00:19 36.75063 -99.37719 38147 ft 397 kts 303°
2026-05-07 00:19 36.79169 -99.42358 38159 ft 399 kts 303°
2026-05-07 00:20 36.83283 -99.47012 38163 ft 399 kts 303°
2026-05-07 00:20 36.87399 -99.51675 38158 ft 400 kts 303°
2026-05-07 00:21 36.91520 -99.56351 38150 ft 401 kts 303°
2026-05-07 00:21 36.95653 -99.61046 38152 ft 402 kts 303°
2026-05-07 00:22 36.99775 -99.65739 38154 ft 401 kts 303°
2026-05-07 00:22 37.03899 -99.70440 38157 ft 402 kts 304°
2026-05-07 00:23 37.08037 -99.75163 38161 ft 403 kts 304°
2026-05-07 00:23 37.12184 -99.79903 38160 ft 404 kts 304°
2026-05-07 00:24 37.16340 -99.84661 38163 ft 404 kts 304°
2026-05-07 00:24 37.20480 -99.89409 38165 ft 404 kts 304°
2026-05-07 00:25 37.24638 -99.94186 38166 ft 406 kts 304°
2026-05-07 00:25 37.28804 -99.98978 38163 ft 407 kts 305°
2026-05-07 00:26 37.33005 -100.03818 38165 ft 409 kts 306°
2026-05-07 00:26 37.37205 -100.08666 38169 ft 410 kts 306°
2026-05-07 00:27 37.41399 -100.13514 38165 ft 410 kts 306°
2026-05-07 00:27 37.45595 -100.18372 38164 ft 410 kts 306°
2026-05-07 00:28 37.49799 -100.23246 38162 ft 411 kts 306°
2026-05-07 00:28 37.53998 -100.28125 38164 ft 411 kts 306°
2026-05-07 00:29 37.58205 -100.33018 38167 ft 411 kts 306°
2026-05-07 00:30 37.66613 -100.42824 38168 ft 412 kts 306°
2026-05-07 00:30 37.70814 -100.47736 38172 ft 412 kts 306°
2026-05-07 00:31 37.75020 -100.52659 38175 ft 412 kts 306°
2026-05-07 00:31 37.79223 -100.57588 38177 ft 412 kts 307°
2026-05-07 00:32 37.83416 -100.62512 38171 ft 410 kts 306°
2026-05-07 00:32 37.87598 -100.67430 38177 ft 411 kts 306°
2026-05-07 00:33 37.91609 -100.72565 38151 ft 394 kts 294°
2026-05-07 00:33 37.94154 -100.78595 38153 ft 389 kts 289°
2026-05-07 00:34 37.96587 -100.84705 38170 ft 388 kts 288°
2026-05-07 00:34 37.98968 -100.90849 38180 ft 389 kts 288°
2026-05-07 00:35 38.01339 -100.97019 38183 ft 390 kts 289°
2026-05-07 00:35 38.03738 -101.03283 38186 ft 398 kts 289°
2026-05-07 00:36 38.05746 -101.08535 38202 ft 398 kts 290°
2026-05-07 00:36 38.08158 -101.14857 38202 ft 399 kts 290°
2026-05-07 00:37 38.10580 -101.21217 38212 ft 400 kts 290°
2026-05-07 00:37 38.13002 -101.27591 38212 ft 401 kts 290°
2026-05-07 00:38 38.15438 -101.34012 38206 ft 401 kts 290°
2026-05-07 00:38 38.17857 -101.40405 38203 ft 401 kts 290°
2026-05-07 00:39 38.20535 -101.46655 38198 ft 405 kts 296°
2026-05-07 00:39 38.23549 -101.52729 38197 ft 407 kts 296°
2026-05-07 00:40 38.26585 -101.58808 38183 ft 407 kts 296°
2026-05-07 00:40 38.29617 -101.64886 38183 ft 407 kts 296°
2026-05-07 00:41 38.32648 -101.70971 38184 ft 407 kts 296°
2026-05-07 00:41 38.35676 -101.77063 38184 ft 407 kts 296°
2026-05-07 00:42 38.38700 -101.83158 38174 ft 407 kts 296°
2026-05-07 00:42 38.41719 -101.89253 38174 ft 407 kts 296°
2026-05-07 00:43 38.44739 -101.95364 38175 ft 407 kts 296°
2026-05-07 00:43 38.47758 -102.01484 38173 ft 408 kts 296°
2026-05-07 00:44 38.50775 -102.07611 38173 ft 408 kts 296°
2026-05-07 00:44 38.53792 -102.13748 38175 ft 408 kts 296°
2026-05-07 00:45 38.56807 -102.19895 38173 ft 408 kts 296°
2026-05-07 00:45 38.59817 -102.26069 38176 ft 409 kts 297°
2026-05-07 00:46 38.62846 -102.32291 38165 ft 409 kts 297°
2026-05-07 00:46 38.65852 -102.38478 38175 ft 410 kts 297°
2026-05-07 00:47 38.68861 -102.44680 38173 ft 410 kts 297°
2026-05-07 00:47 38.71863 -102.50881 38164 ft 410 kts 297°
2026-05-07 00:48 38.74865 -102.57097 38163 ft 410 kts 297°
2026-05-07 00:48 38.77865 -102.63318 38164 ft 411 kts 298°
2026-05-07 00:49 38.80870 -102.69563 38169 ft 412 kts 297°
2026-05-07 00:49 38.83873 -102.75815 38163 ft 412 kts 298°
2026-05-07 00:50 38.86873 -102.82072 37987 ft 410 kts 298°
2026-05-07 00:50 38.88364 -102.85188 37732 ft 408 kts 298°
2026-05-07 00:50 38.89848 -102.88291 37512 ft 408 kts 298°
2026-05-07 00:51 38.91333 -102.91400 37255 ft 407 kts 298°
2026-05-07 00:51 38.92809 -102.94489 36399 ft 409 kts 298°
2026-05-07 00:51 38.94321 -102.97659 35154 ft 422 kts 299°
2026-05-07 00:51 38.95881 -103.00886 34019 ft 430 kts 299°
2026-05-07 00:52 38.97460 -103.04145 33468 ft 425 kts 300°
2026-05-07 00:52 38.98991 -103.07313 33262 ft 411 kts 300°
2026-05-07 00:52 39.00492 -103.10422 32594 ft 410 kts 300°
2026-05-07 00:52 39.01994 -103.13538 31987 ft 408 kts 300°
2026-05-07 00:53 39.03478 -103.16617 31488 ft 403 kts 300°
2026-05-07 00:53 39.04960 -103.19723 30842 ft 401 kts 300°
2026-05-07 00:53 39.06413 -103.22780 30265 ft 399 kts 301°
2026-05-07 00:53 39.07850 -103.25805 29815 ft 393 kts 301°
2026-05-07 00:54 39.09265 -103.28787 29307 ft 389 kts 301°
2026-05-07 00:54 39.10668 -103.31745 28772 ft 386 kts 301°
2026-05-07 00:54 39.12059 -103.34683 28250 ft 383 kts 301°
2026-05-07 00:54 39.13440 -103.37599 27736 ft 380 kts 301°
2026-05-07 00:55 39.14809 -103.40495 27210 ft 377 kts 301°
2026-05-07 00:55 39.16171 -103.43376 26698 ft 375 kts 301°
2026-05-07 00:55 39.17519 -103.46230 26159 ft 373 kts 301°
2026-05-07 00:55 39.18862 -103.49079 25668 ft 370 kts 301°
2026-05-07 00:56 39.20191 -103.51901 25157 ft 368 kts 301°
2026-05-07 00:56 39.21520 -103.54726 24596 ft 367 kts 301°
2026-05-07 00:56 39.22836 -103.57526 24138 ft 364 kts 301°
2026-05-07 00:56 39.24143 -103.60309 23662 ft 362 kts 301°
2026-05-07 00:57 39.25442 -103.63076 23204 ft 359 kts 301°
2026-05-07 00:57 39.26726 -103.65815 22754 ft 356 kts 301°
2026-05-07 00:57 39.28006 -103.68546 22295 ft 353 kts 301°
2026-05-07 00:57 39.29359 -103.71180 21806 ft 351 kts 304°
2026-05-07 00:58 39.30739 -103.73768 21422 ft 351 kts 304°
2026-05-07 00:58 39.32119 -103.76375 21059 ft 351 kts 304°
2026-05-07 00:58 39.33485 -103.78965 20640 ft 348 kts 304°
2026-05-07 00:58 39.34843 -103.81547 20236 ft 345 kts 304°
2026-05-07 00:59 39.37439 -103.86489 19399 ft 321 kts 304°
2026-05-07 00:59 39.38667 -103.88831 18993 ft 309 kts 304°
2026-05-07 00:59 39.39848 -103.91081 18622 ft 298 kts 304°
2026-05-07 01:00 39.41011 -103.93303 18253 ft 298 kts 304°
2026-05-07 01:00 39.42169 -103.95513 17891 ft 296 kts 303°
2026-05-07 01:00 39.43302 -103.97723 17569 ft 292 kts 299°
2026-05-07 01:00 39.43921 -104.00218 17386 ft 291 kts 277°
2026-05-07 01:01 39.43933 -104.02860 17194 ft 295 kts 272°
2026-05-07 01:01 39.43893 -104.05517 16998 ft 296 kts 271°
2026-05-07 01:01 39.43830 -104.08174 16805 ft 295 kts 271°
2026-05-07 01:01 39.43756 -104.10826 16377 ft 298 kts 271°
2026-05-07 01:02 39.43672 -104.13546 15710 ft 307 kts 270°
2026-05-07 01:02 39.43578 -104.16329 15059 ft 312 kts 270°
2026-05-07 01:02 39.43481 -104.19133 14423 ft 312 kts 270°
2026-05-07 01:02 39.43381 -104.21929 13900 ft 308 kts 270°
2026-05-07 01:03 39.43285 -104.24628 13654 ft 292 kts 270°
2026-05-07 01:03 39.43194 -104.27177 13494 ft 274 kts 270°
2026-05-07 01:03 39.43107 -104.29565 13332 ft 258 kts 270°